| time (UTC) | temp C | wind direction | speed KPH | gust KPH | rain 1hr cm | rain 24hr cm | rain mn cm | humidity % | barometer mb |
| 20260504035522 | 12 | 208 | 0.0 | 1.6 | 0.00 | 0.05 | 0.00 | 91 | 1015.6 |
| 20260504034521 | 12 | 228 | 1.6 | 1.6 | 0.00 | 0.05 | 0.00 | 90 | 1015.5 |
| 20260504033541 | 12 | 229 | 0.0 | 1.6 | 0.00 | 0.05 | 0.00 | 90 | 1015.6 |
| 20260504032539 | 12 | 228 | 0.0 | 3.2 | 0.00 | 0.05 | 0.00 | 90 | 1015.7 |
| 20260504031515 | 12 | 231 | 1.6 | 3.2 | 0.00 | 0.05 | 0.00 | 89 | 1015.6 |
| 20260504030615 | 12 | 229 | 0.0 | 1.6 | 0.00 | 0.05 | 0.00 | 89 | 1015.5 |
| 20260504025552 | 12 | 230 | 1.6 | 3.2 | 0.00 | 0.05 | 0.00 | 90 | 1015.6 |
| 20260504024531 | 12 | 233 | 0.0 | 3.2 | 0.00 | 0.05 | 0.00 | 90 | 1015.6 |
| 20260504023528 | 12 | 222 | 0.0 | 1.6 | 0.00 | 0.05 | 0.00 | 90 | 1015.6 |
| 20260504022526 | 12 | 227 | 1.6 | 3.2 | 0.00 | 0.05 | 0.00 | 90 | 1015.7 |
| 20260504021606 | 12 | 234 | 0.0 | 1.6 | 0.00 | 0.05 | 0.00 | 89 | 1015.6 |
| 20260504020544 | 13 | 229 | 0.0 | 1.6 | 0.00 | 0.05 | 0.00 | 88 | 1015.7 |
| 20260504015521 | 13 | 229 | 0.0 | 3.2 | 0.00 | 0.05 | 0.00 | 87 | 1015.7 |
| 20260504014519 | 13 | 286 | 0.0 | 1.6 | 0.00 | 0.05 | 0.00 | 87 | 1015.7 |
| 20260504013517 | 13 | 283 | 0.0 | 1.6 | 0.00 | 0.05 | 0.00 | 88 | 1015.8 |
| 20260504012517 | 13 | 278 | 0.0 | 1.6 | 0.00 | 0.05 | 0.00 | 88 | 1015.8 |
| 20260504011533 | 13 | 242 | 0.0 | 1.6 | 0.00 | 0.08 | 0.00 | 88 | 1015.9 |
| 20260504010553 | 13 | 292 | 1.6 | 3.2 | 0.00 | 0.08 | 0.00 | 88 | 1016.0 |
| 20260504005530 | 13 | 266 | 0.0 | 1.6 | 0.00 | 0.08 | 0.00 | 88 | 1015.9 |
| 20260504004528 | 13 | 286 | 1.6 | 3.2 | 0.00 | 0.08 | 0.00 | 88 | 1016.0 |
| 20260504003528 | 13 | 274 | 0.0 | 1.6 | 0.00 | 0.08 | 0.00 | 88 | 1016.0 |
| 20260504002524 | 13 | 286 | 0.0 | 1.6 | 0.00 | 0.08 | 0.00 | 87 | 1016.2 |
| 20260504001526 | 13 | 282 | 1.6 | 4.8 | 0.00 | 0.08 | 0.00 | 86 | 1016.2 |
| 20260504000522 | 13 | 233 | 1.6 | 3.2 | 0.00 | 0.08 | 0.00 | 86 | 1016.2 |
| 20260503235539 | 13 | 234 | 1.6 | 3.2 | 0.00 | 0.08 | 0.00 | 86 | 1016.1 |
| 20260503234539 | 13 | 0.0 | 0.0 | 0.00 | 0.08 | 0.00 | 86 | 1016.2 | |
| 20260503233516 | 13 | 0.0 | 0.0 | 0.00 | 0.08 | 0.00 | 86 | 1016.3 | |
| 20260503232533 | 13 | 0.0 | 0.0 | 0.00 | 0.08 | 0.00 | 86 | 1016.2 | |
| 20260503231532 | 13 | 279 | 0.0 | 3.2 | 0.00 | 0.08 | 0.00 | 86 | 1016.2 |
| 20260503230550 | 13 | 244 | 0.0 | 1.6 | 0.00 | 0.08 | 0.00 | 87 | 1016.2 |
| 20260503225528 | 13 | 280 | 0.0 | 1.6 | 0.00 | 0.08 | 0.08 | 87 | 1016.2 |
| 20260503224526 | 13 | 299 | 0.0 | 3.2 | 0.00 | 0.08 | 0.08 | 86 | 1016.2 |
| 20260503223549 | 13 | 260 | 0.0 | 3.2 | 0.00 | 0.08 | 0.08 | 86 | 1016.3 |
| 20260503222523 | 13 | 277 | 0.0 | 3.2 | 0.00 | 0.08 | 0.08 | 87 | 1016.4 |
| 20260503221541 | 13 | 277 | 0.0 | 3.2 | 0.00 | 0.08 | 0.08 | 87 | 1016.3 |
| 20260503220519 | 13 | 269 | 0.0 | 1.6 | 0.00 | 0.08 | 0.08 | 88 | 1016.2 |
| 20260503215517 | 13 | 340 | 0.0 | 1.6 | 0.00 | 0.08 | 0.08 | 88 | 1016.2 |
| 20260503214515 | 14 | 253 | 0.0 | 1.6 | 0.00 | 0.08 | 0.08 | 88 | 1016.1 |
| 20260503213533 | 14 | 246 | 0.0 | 1.6 | 0.00 | 0.08 | 0.08 | 87 | 1016.1 |
| 20260503212533 | 14 | 261 | 0.0 | 3.2 | 0.00 | 0.08 | 0.08 | 87 | 1016.0 |
| 20260503211530 | 14 | 278 | 0.0 | 3.2 | 0.00 | 0.08 | 0.08 | 87 | 1015.8 |
| 20260503210531 | 14 | 283 | 0.0 | 3.2 | 0.00 | 0.08 | 0.08 | 87 | 1015.9 |
| 20260503205526 | 14 | 281 | 0.0 | 3.2 | 0.00 | 0.08 | 0.08 | 86 | 1015.7 |
| 20260503204526 | 14 | 279 | 0.0 | 3.2 | 0.00 | 0.08 | 0.08 | 85 | 1015.6 |
| 20260503203522 | 15 | 278 | 0.0 | 3.2 | 0.00 | 0.08 | 0.08 | 84 | 1015.4 |
| 20260503202521 | 15 | 278 | 0.0 | 1.6 | 0.00 | 0.08 | 0.08 | 84 | 1015.4 |
| 20260503201520 | 15 | 284 | 0.0 | 4.8 | 0.00 | 0.08 | 0.08 | 83 | 1015.2 |
| 20260503200517 | 15 | 312 | 1.6 | 6.4 | 0.00 | 0.08 | 0.08 | 82 | 1015.1 |
| 20260503195515 | 15 | 273 | 1.6 | 9.7 | 0.00 | 0.08 | 0.08 | 82 | 1015.0 |
| 20260503194533 | 15 | 308 | 1.6 | 9.7 | 0.00 | 0.08 | 0.08 | 81 | 1014.9 |
| 20260503193532 | 15 | 268 | 1.6 | 3.2 | 0.00 | 0.08 | 0.08 | 81 | 1014.8 |
| 20260503192530 | 15 | 308 | 3.2 | 9.7 | 0.00 | 0.08 | 0.08 | 81 | 1014.7 |
| 20260503191548 | 16 | 250 | 3.2 | 9.7 | 0.00 | 0.08 | 0.08 | 80 | 1014.6 |
| 20260503190546 | 16 | 271 | 3.2 | 11.3 | 0.00 | 0.08 | 0.08 | 79 | 1014.5 |
| 20260503185524 | 17 | 264 | 1.6 | 4.8 | 0.00 | 0.08 | 0.08 | 78 | 1014.4 |
| 20260503184543 | 16 | 307 | 3.2 | 11.3 | 0.00 | 0.08 | 0.08 | 78 | 1014.4 |
| 20260503183522 | 17 | 329 | 6.4 | 14.5 | 0.00 | 0.08 | 0.08 | 80 | 1014.3 |
| 20260503182519 | 16 | 291 | 3.2 | 12.9 | 0.00 | 0.08 | 0.08 | 82 | 1014.3 |
| 20260503181517 | 17 | 279 | 1.6 | 9.7 | 0.00 | 0.08 | 0.08 | 79 | 1014.3 |
| 20260503180515 | 17 | 273 | 1.6 | 9.7 | 0.00 | 0.08 | 0.08 | 79 | 1014.3 |
| 20260503175534 | 16 | 255 | 1.6 | 6.4 | 0.00 | 0.08 | 0.08 | 81 | 1014.3 |
| 20260503174532 | 16 | 313 | 6.4 | 17.7 | 0.00 | 0.08 | 0.08 | 80 | 1014.4 |
| 20260503173531 | 17 | 300 | 3.2 | 9.7 | 0.00 | 0.08 | 0.08 | 79 | 1014.5 |
| 20260503172528 | 17 | 295 | 3.2 | 12.9 | 0.00 | 0.08 | 0.08 | 77 | 1014.5 |
| 20260503171526 | 18 | 280 | 3.2 | 14.5 | 0.00 | 0.08 | 0.08 | 75 | 1014.5 |
| 20260503170526 | 17 | 298 | 3.2 | 9.7 | 0.00 | 0.08 | 0.08 | 77 | 1014.4 |
| 20260503150523 | 19 | 297 | 4.8 | 12.9 | 0.00 | 0.08 | 0.08 | 73 | 1014.6 |
| 20260503130521 | 17 | 303 | 8.0 | 20.9 | 0.00 | 0.08 | 0.08 | 80 | 1014.8 |
| 20260503110519 | 15 | 285 | 1.6 | 4.8 | 0.03 | 0.08 | 0.08 | 94 | 1015.3 |
| 20260503081529 | 16 | 228 | 3.2 | 12.9 | 0.00 | 0.53 | 0.05 | 89 | 1014.8 |
| 20260503080527 | 15 | 225 | 1.6 | 4.8 | 0.00 | 0.53 | 0.05 | 90 | 1014.8 |
| 20260503072540 | 14 | 226 | 1.6 | 4.8 | 0.00 | 0.56 | 0.05 | 97 | 1014.8 |
| 20260503071538 | 14 | 227 | 1.6 | 4.8 | 0.00 | 0.56 | 0.05 | 98 | 1014.7 |
| 20260503070516 | 13 | 235 | 1.6 | 4.8 | 0.00 | 0.56 | 0.05 | 99 | 1014.9 |
| 20260503054542 | 12 | 0.0 | 0.0 | 0.03 | 0.56 | 0.05 | 99 | 1014.3 | |
| 20260503053520 | 12 | 226 | 0.0 | 3.2 | 0.03 | 0.56 | 0.05 | 99 | 1014.3 |
| 20260503052518 | 13 | 225 | 0.0 | 1.6 | 0.00 | 0.53 | 0.03 | 99 | 1014.3 |
| 20260503051517 | 13 | 225 | 0.0 | 1.6 | 0.00 | 0.53 | 0.03 | 99 | 1014.2 |
| 20260503050535 | 13 | 232 | 0.0 | 1.6 | 0.00 | 0.58 | 0.03 | 99 | 1014.3 |
| 20260503045533 | 13 | 241 | 0.0 | 1.6 | 0.00 | 0.58 | 0.03 | 99 | 1014.3 |
| 20260503044531 | 13 | 233 | 0.0 | 1.6 | 0.00 | 0.58 | 0.03 | 99 | 1014.2 |
| 20260503043529 | 13 | 224 | 0.0 | 1.6 | 0.00 | 0.58 | 0.03 | 99 | 1014.3 |
| 20260503042527 | 13 | 223 | 0.0 | 1.6 | 0.00 | 0.58 | 0.03 | 99 | 1014.2 |
| 20260503041525 | 13 | 224 | 0.0 | 1.6 | 0.00 | 0.58 | 0.03 | 99 | 1014.2 |
| 20260503040524 | 13 | 226 | 0.0 | 3.2 | 0.00 | 0.58 | 0.03 | 99 | 1014.2 |